Content
SEND FEEDBACK

Daily
Averages
Monthly
Summary
Mexico

PLAYA DEL CARMEN, QUINTANA ROO


Home > North America > Mexico > Quintana Roo
Elevation: 30 feet     Latitude: 20 38N     Longitude: 087 04W

WEATHER
 
SELECT A DAY
Number of Records: 196,696;   Date Range: 2/21/06 - 9/3/14
 
SHARE

PRINT THIS DATA

[ ← Previous Day ]
WEATHER ALMANAC - JANUARY 25, 2014
[ Next Day → ]
[ °C ]   °F
Weather ElementAverageHighLow
Temperature55.7 °F69.8 °F (1:35 pm)44.6 °F (12:35 am)
Dewpoint40.8 °F51.8 °F (10:35 pm)33.8 °F (12:35 am)
Humidity60.8 %88 % (11:35 pm)28 % (1:35 pm)
Barometer30.18 in30.31 in (12:35 am)30.08 in (3:15 pm)
Wind Speed4.5 mph13.8 mph (10:55 am)
Wind Gust41.4 mph (10:55 am)
Weather ElementAverage
Visibility10 mi
Wind DirectionSE (134.5 °)

Weather ElementTotal
Precipitation---
Heating Degree Days7.8 (Base 65)
Growing Degree Days7.2 (Base 50)
Averaged from 69 records on January 25, 2014
WEATHER CONDITIONS BREAKOUT
WIND DIRECTION BREAKOUT
WEATHER BY HOUR - JANUARY 25, 2014
[ °C ]   °F
Local TimeTemperatureDewpointHumidityBarometerVisibilityWind DirectionWind SpeedGust SpeedPrecipitationEventsConditions
12:35 AM44.6 °F33.8 °F66 %30.31 in10.0 miNNE (20°)4.6 mphMostly Cloudy
12:55 AM44.6 °F33.8 °F66 %30.30 in10.0 miNNE (30°)3.5 mphScattered Clouds
1:15 AM44.6 °F33.8 °F66 %30.31 in10.0 miCalmClear
1:35 AM44.6 °F33.8 °F66 %30.30 in10.0 miNNE (20°)3.5 mphClear
1:55 AM44.6 °F33.8 °F66 %30.29 in10.0 miNorth (360°)6.9 mphScattered Clouds
2:15 AM44.6 °F33.8 °F66 %30.28 in10.0 miNNE (30°)5.8 mphOvercast
2:35 AM44.6 °F35.6 °F71 %30.27 in10.0 miNNE (30°)4.6 mphOvercast
2:55 AM46.4 °F35.6 °F66 %30.27 in10.0 miCalmOvercast
3:15 AM44.6 °F35.6 °F71 %30.26 in10.0 miCalmOvercast
3:35 AM44.6 °F35.6 °F71 %30.25 in10.0 miNE (40°)5.8 mphOvercast
3:55 AM46.4 °F37.4 °F71 %30.25 in10.0 miCalmOvercast
4:15 AM46.4 °F35.6 °F66 %30.26 in10.0 miNorth (10°)4.6 mphOvercast
4:35 AM46.4 °F35.6 °F66 %30.24 in10.0 miNNE (20°)3.5 mph19.6 mphOvercast
4:55 AM46.4 °F35.6 °F66 %30.26 in10.0 miNorth (360°)3.5 mphOvercast
5:15 AM44.6 °F35.6 °F71 %30.25 in10.0 miNorth (10°)6.9 mphOvercast
5:35 AM44.6 °F37.4 °F76 %30.24 in10.0 miNNE (30°)3.5 mphRainLight Rain
5:55 AM44.6 °F39.2 °F81 %30.24 in10.0 miCalmLight Drizzle
6:15 AM44.6 °F39.2 °F81 %30.23 in10.0 miCalmMostly Cloudy
6:35 AM44.6 °F39.2 °F81 %30.23 in10.0 miCalmOvercast
6:55 AM46.4 °F39.2 °F76 %30.23 in10.0 miCalmMostly Cloudy
7:15 AM46.4 °F39.2 °F76 %30.23 in10.0 miCalmMostly Cloudy
7:35 AM44.6 °F39.2 °F81 %30.23 in10.0 miCalmMostly Cloudy
7:55 AM46.4 °F39.2 °F76 %30.24 in10.0 miCalmOvercast
8:15 AM46.4 °F39.2 °F76 %30.23 in10.0 miCalmOvercast
8:35 AM46.4 °F39.2 °F76 %30.22 in10.0 miNE (50°)3.5 mphOvercast
8:55 AM48.2 °F41.0 °F76 %30.22 in10.0 miCalmOvercast
9:15 AM50.0 °F41.0 °F71 %30.23 in10.0 miCalmScattered Clouds
9:35 AM51.8 °F41.0 °F67 %30.23 in10.0 miCalmScattered Clouds
9:55 AM55.4 °F42.8 °F63 %30.23 in10.0 miCalmScattered Clouds
10:15 AM57.2 °F42.8 °F59 %30.24 in10.0 miCalmScattered Clouds
10:35 AM59.0 °F42.8 °F55 %30.23 in10.0 miCalmMostly Cloudy
10:55 AM62.6 °F44.6 °F52 %30.23 in10.0 miWest (280°)13.8 mph41.4 mphMostly Cloudy
11:15 AM62.6 °F44.6 °F52 %30.22 in10.0 miNW (320°)4.6 mphMostly Cloudy
11:35 AM64.4 °F42.8 °F45 %30.22 in10.0 miWNW (290°)5.8 mphOvercast
11:55 AM64.4 °F42.8 °F45 %30.21 in10.0 miWest (270°)6.9 mphOvercast
12:15 PM66.2 °F41.0 °F40 %30.19 in10.0 miWSW (240°)8.1 mphScattered Clouds
12:35 PM68.0 °F39.2 °F35 %30.18 in10.0 miWNW (290°)5.8 mphScattered Clouds
12:55 PM68.0 °F41.0 °F37 %30.17 in10.0 miWest (260°)6.9 mphMostly Cloudy
1:15 PM68.0 °F39.2 °F35 %30.14 in10.0 miWest (260°)9.2 mphScattered Clouds
1:35 PM69.8 °F35.6 °F28 %30.13 in10.0 miWSW (250°)5.8 mphClear
1:55 PM69.8 °F35.6 °F28 %30.12 in10.0 miWest (260°)10.4 mphClear
2:15 PM69.8 °F37.4 °F31 %30.11 in10.0 miWSW (240°)6.9 mph16.1 mphClear
2:35 PM69.8 °F37.4 °F31 %30.09 in10.0 miSW (220°)6.9 mphClear
2:55 PM69.8 °F37.4 °F31 %30.09 in10.0 miWSW (240°)10.4 mphClear
3:15 PM69.8 °F37.4 °F31 %30.08 in10.0 miSW (230°)10.4 mphClear
3:35 PM69.8 °F37.4 °F31 %30.08 in10.0 miWSW (250°)9.2 mphClear
3:55 PM69.8 °F37.4 °F31 %30.08 in10.0 miWSW (240°)10.4 mphClear
4:15 PM68.0 °F37.4 °F33 %30.08 in10.0 miWSW (240°)10.4 mphClear
4:35 PM68.0 °F39.2 °F35 %30.08 in10.0 miWSW (250°)12.7 mph18.4 mphClear
4:55 PM66.2 °F41.0 °F40 %30.08 in10.0 miWSW (250°)11.5 mphClear
5:15 PM66.2 °F41.0 °F40 %30.08 in10.0 miWSW (240°)11.5 mphClear
5:35 PM64.4 °F41.0 °F42 %30.08 in10.0 miWSW (240°)9.2 mphClear
5:55 PM62.6 °F42.8 °F48 %30.09 in10.0 miWSW (250°)6.9 mphClear
6:15 PM60.8 °F44.6 °F55 %30.08 in10.0 miWest (260°)3.5 mphClear
6:35 PM60.8 °F44.6 °F55 %30.09 in10.0 miWSW (250°)3.5 mphClear
6:55 PM59.0 °F46.4 °F63 %30.10 in10.0 miWest (260°)4.6 mphClear
7:15 PM57.2 °F46.4 °F67 %30.10 in10.0 miWSW (240°)3.5 mphClear
7:35 PM57.2 °F46.4 °F67 %30.10 in10.0 miCalmClear
7:55 PM57.2 °F46.4 °F67 %30.10 in10.0 miCalmClear
8:15 PM57.2 °F48.2 °F72 %30.10 in10.0 miSW (230°)3.5 mphClear
8:35 PM55.4 °F48.2 °F77 %30.11 in10.0 miCalmClear
8:55 PM53.6 °F48.2 °F82 %30.11 in10.0 miCalmClear
9:15 PM53.6 °F48.2 °F82 %30.12 in10.0 miSW (220°)3.5 mphMostly Cloudy
10:15 PM57.2 °F50.0 °F77 %30.12 in10.0 miSSW (210°)3.5 mphOvercast
10:35 PM57.2 °F51.8 °F82 %30.12 in10.0 miSSW (210°)5.8 mphOvercast
10:55 PM57.2 °F51.8 °F82 %30.12 in10.0 miSSW (210°)4.6 mphOvercast
11:15 PM57.2 °F51.8 °F82 %30.11 in10.0 miSSW (200°)3.5 mphOvercast
11:35 PM55.4 °F51.8 °F88 %30.09 in10.0 miSouth (180°)5.8 mphScattered Clouds
11:55 PM55.4 °F51.8 °F88 %30.08 in10.0 miSouth (190°)9.2 mphScattered Clouds
Hourly data recorded from KPCM, located miles away from Playa del Carmen, Quintana Roo







STORIES FROM OUR PARTNERS